[[{"header":{"parameterUnit":"m.s-1","parameterCategory":1,"la1":30.2991,"la2":30.254,"lo1":-89.0895,"lo2":-89.0444,"dy":0.0017,"dx":0.0017,"nx":28,"ny":28,"refTime":"2025-06-08T09:00:00:Z","depth":0,"parameterNumber":2,"parameterNumberName":"U-component_of_WINDS"},"data":[0,0,0,0,0,0,0,0,0,0,0,0,0,0,0,0,0,0,0,0,0,0,0,0,0,0,0,0,0,0,0,0,0,0,0,0,0,0,0,0,0,0,0,0,0,0,0,0,0,0,0,0,0,0,0,0,0,0,5.5778,5.5778,0,5.5853,5.5854,5.5854,5.5788,5.5785,5.5783,5.578,5.5853,5.5858,5.5862,0,0,0,0,0,0,0,0,0,0,0,0,0,5.557,5.5575,5.5777,5.5778,5.5779,5.5853,5.5854,5.5855,5.5789,5.5785,5.5782,5.5779,5.5852,5.5857,5.5862,0,0,0,0,0,0,0,0,0,0,0,0,0,5.5654,5.5576,5.5777,5.5755,5.5754,5.5852,5.5854,5.5855,5.5789,5.5785,5.5781,5.5777,5.585,5.5856,5.5863,5.5986,0,0,5.5884,5.5886,0,0,0,0,0,0,0,0,5.565,5.5662,5.5758,5.5757,5.5756,5.5807,5.5807,5.5899,5.579,5.5776,5.578,5.5775,5.5841,5.5848,5.5871,5.5989,5.5992,5.5884,5.5888,5.5891,5.5893,0,0,0,0,0,0,0,5.5644,5.5658,5.5807,5.5759,5.5758,5.574,5.5747,5.5824,5.583,5.5777,5.5772,5.5782,5.5839,5.5865,5.5872,5.5993,5.5884,5.589,5.5894,5.5897,5.6211,5.6215,0,0,0,0,0,0,5.5641,5.5654,5.5805,5.5809,5.5692,5.5747,5.5755,5.5795,5.5829,5.583,5.5786,5.5779,5.5855,5.5864,5.5874,5.6016,5.5891,5.5897,5.5901,5.6207,5.6212,5.6216,0,0,0,0,0,0,5.5637,5.5655,5.5802,5.5731,5.5748,5.5755,5.58,5.5798,5.5823,5.5836,5.5836,5.5811,5.5852,5.5865,5.5958,5.6018,5.59,5.5906,5.6201,5.6208,5.6214,5.6304,0,0,0,0,0,0,5.5631,5.5654,5.5703,5.5732,5.5752,5.5886,5.5803,5.5803,5.5835,5.5827,5.5859,5.5861,5.585,5.5948,5.5964,5.6025,5.5912,5.6196,5.6204,5.6212,5.6295,5.6312,5.6327,0,0,0,0,0,5.5624,5.5725,5.5705,5.5724,5.5813,5.5889,5.59,5.5888,5.5841,5.5888,5.5895,5.5859,5.601,5.5958,5.5976,5.604,5.6192,5.6202,5.6212,5.6288,5.6309,5.6327,0,0,0,0,0,0,5.5701,5.5728,5.5707,5.5821,5.5853,5.5878,5.5937,5.5911,5.5957,5.5947,5.5928,5.5935,5.6032,5.6046,5.5988,5.6158,5.6093,5.6107,5.6145,5.6165,5.6181,5.6173,5.5917,0,0,0,0,0,5.5732,5.5794,5.5813,5.5912,5.5929,5.5931,5.5964,5.5951,5.5983,5.5996,5.6011,5.6042,5.6096,5.6132,5.6183,5.6298,5.6301,5.635,5.6366,5.6379,5.639,5.6447,5.6468,5.6248,5.6248,5.6248,0,0,5.5795,5.5817,5.5857,5.5928,5.5951,5.6013,5.5943,5.6012,5.6057,5.6007,5.6094,5.6106,5.614,5.6243,5.6289,5.6257,5.6452,5.6392,5.6402,5.6405,5.6459,5.648,5.6498,5.6255,5.6254,5.6253,0,0,5.594,5.5965,5.6047,5.6073,5.611,5.611,5.613,5.6158,5.6164,5.6252,5.6215,5.6267,5.6362,5.6385,5.641,5.6563,5.653,5.658,5.6661,5.6717,5.6735,5.675,5.6799,5.6818,5.6591,5.6592,5.6592,0,5.6013,5.6106,5.6093,5.6164,5.6194,5.6153,5.6234,5.6259,5.631,5.6331,5.6295,5.641,5.643,5.6536,5.6573,5.6596,5.6615,5.6574,5.6734,5.6749,5.6762,5.681,5.6829,5.6597,5.6597,5.6596,5.6595,0,5.6191,5.6257,5.6318,5.6369,5.6406,5.6483,5.6478,5.6518,5.6501,5.6504,5.6592,5.6615,5.6667,5.6693,5.6678,5.6796,5.6774,5.6737,5.667,5.6789,5.6833,5.6851,5.6605,5.6603,5.6601,5.66,0,0,5.6386,5.6427,5.645,5.647,5.6508,5.6556,5.6629,5.6681,5.6713,5.675,5.6808,5.6888,5.6852,5.688,5.6868,5.6918,5.7031,5.6873,5.6874,5.6898,5.7157,5.7182,5.7204,5.7011,5.7015,5.7018,5.7153,0,5.6529,5.6656,5.6645,5.6765,5.6822,5.6783,5.6846,5.6874,5.6879,5.6926,5.6931,5.6986,5.6938,5.6954,5.7002,5.7007,5.7082,5.6998,5.7061,5.7063,5.7049,5.7227,5.7255,5.7381,5.717,5.7173,5.7176,0,5.6713,5.6755,5.688,5.6905,5.6929,5.6986,5.703,5.7078,5.7108,5.7107,5.7138,5.7117,5.7187,5.7122,5.7216,5.7159,5.7184,5.7191,5.7195,5.7197,5.7124,5.7229,5.7422,5.7439,5.7203,5.7201,5.7199,0,5.6836,5.6925,5.701,5.7029,5.7062,5.7102,5.7117,5.7144,5.7175,5.7214,5.7233,5.728,5.7304,5.734,5.733,5.7285,5.7425,5.736,5.7423,5.7423,5.7451,5.7449,5.7645,5.7475,5.7475,5.7475,5.7474,0,5.6994,5.7071,5.7065,5.7117,5.7201,5.7187,5.727,5.728,5.7303,5.7354,5.7325,5.7373,5.7359,5.7406,5.74,5.7476,5.7489,5.7487,5.7484,5.7488,5.7487,5.7501,5.749,5.748,5.7479,5.7478,5.7477,0,5.7144,5.7144,5.7233,5.7257,5.7265,5.7325,5.7344,5.7391,5.7394,5.7458,5.7473,5.7476,5.7529,5.7524,5.7585,5.758,5.7673,5.7661,5.7662,5.7658,5.7719,5.7712,5.7928,5.7954,5.7771,5.7773,5.7775,0,5.7243,5.7301,5.733,5.7363,5.738,5.7434,5.7465,5.7453,5.7486,5.7524,5.7566,5.7617,5.7656,5.7743,5.7749,5.7794,5.778,5.7853,5.7787,5.7787,5.7776,5.777,5.7774,5.7865,5.7867,5.7869,5.787,0,5.7416,5.7413,5.7459,5.7505,5.7543,5.7579,5.7611,5.7639,5.763,5.7669,5.7723,5.7754,5.7815,5.7864,5.7907,5.792,5.7892,5.7891,5.7907,5.7909,5.7906,5.7904,5.7693,5.7885,5.7884,5.7883,5.7882,5.7881,5.754,5.7588,5.7616,5.7667,5.7691,5.7721,5.7765,5.7773,5.7819,5.7868,5.7858,5.7918,5.7944,5.7998,5.8016,5.8061,5.8034,5.8058,5.8064,5.8069,5.8073,5.7903,5.8069,5.8068,5.8068,5.8068,5.8067,0,5.7708,5.7723,5.7772,5.7817,5.7857,5.783,5.7864,5.7898,5.7952,5.7979,5.8018,5.8079,5.8126,5.8136,5.8181,5.8215,5.8203,5.8226,5.8221,5.8224,5.8097,5.8077,5.8235,5.8235,5.8235,5.8235,5.8235,5.8235,5.7799,5.7878,5.7877,5.7966,5.798,5.8039,5.806,5.8087,5.8108,5.8177,5.8216,5.8223,5.8242,5.8288,5.8329,5.833,5.8346,5.8373,5.8369,5.825,5.8233,5.8217,5.8197,5.8378,5.8378,5.8491,5.8492,5.8493]},{"header":{"parameterUnit":"m.s-1","parameterCategory":1,"la1":30.2991,"la2":30.254,"lo1":-89.0895,"lo2":-89.0444,"dy":0.0017,"dx":0.0017,"nx":28,"ny":28,"refTime":"2025-06-08T09:00:00:Z","depth":0,"parameterNumber":3,"parameterNumberName":"V-component_of_WINDS"},"data":[0,0,0,0,0,0,0,0,0,0,0,0,0,0,0,0,0,0,0,0,0,0,0,0,0,0,0,0,0,0,0,0,0,0,0,0,0,0,0,0,0,0,0,0,0,0,0,0,0,0,0,0,0,0,0,0,0,0,6.5179,6.5181,0,6.5348,6.5349,6.5351,6.5347,6.5344,6.5342,6.534,6.5505,6.5512,6.5518,0,0,0,0,0,0,0,0,0,0,0,0,0,6.4845,6.4851,6.5179,6.5181,6.5183,6.5347,6.535,6.5352,6.5347,6.5344,6.5341,6.5339,6.5503,6.5511,6.5519,0,0,0,0,0,0,0,0,0,0,0,0,0,6.4999,6.4853,6.5178,6.5201,6.5204,6.5347,6.535,6.5352,6.5348,6.5344,6.5341,6.5337,6.55,6.551,6.552,6.5649,0,0,6.555,6.5554,0,0,0,0,0,0,0,0,6.499,6.5011,6.5195,6.5199,6.5204,6.5323,6.5292,6.5452,6.5348,6.5293,6.534,6.5336,6.5447,6.5461,6.55,6.5657,6.5664,6.5551,6.5556,6.5561,6.5563,0,0,0,0,0,0,0,6.498,6.5004,6.5245,6.5198,6.5203,6.5199,6.5218,6.5322,6.5387,6.5297,6.5298,6.5318,6.5448,6.549,6.5504,6.5666,6.555,6.5559,6.5565,6.5569,6.5935,6.5939,0,0,0,0,0,0,6.4965,6.4995,6.524,6.525,6.5087,6.5208,6.5229,6.5288,6.5386,6.5397,6.5321,6.5317,6.5475,6.5492,6.5509,6.5666,6.5561,6.557,6.5575,6.5931,6.5936,6.594,0,0,0,0,0,0,6.4958,6.4987,6.5233,6.5123,6.5154,6.5218,6.5284,6.5293,6.5335,6.5403,6.5414,6.5352,6.5473,6.5496,6.5614,6.5671,6.5574,6.5583,6.5927,6.5933,6.5938,6.598,0,0,0,0,0,0,6.4949,6.4985,6.5036,6.5124,6.516,6.5338,6.5288,6.5299,6.5353,6.535,6.5436,6.5447,6.5472,6.56,6.5624,6.5683,6.5591,6.5922,6.5929,6.5936,6.5974,6.5987,6.5998,0,0,0,0,0,6.4937,6.5041,6.5039,6.5069,6.5227,6.5341,6.5361,6.5391,6.5357,6.5409,6.5452,6.5444,6.5661,6.5612,6.5639,6.5702,6.5918,6.5927,6.5936,6.5969,6.5984,6.5997,0,0,0,0,0,0,6.4956,6.5052,6.5052,6.5188,6.5257,6.534,6.5406,6.5407,6.5484,6.5478,6.5509,6.5528,6.5646,6.5686,6.5629,6.5831,6.5785,6.58,6.5801,6.5816,6.5828,6.5815,6.5599,0,0,0,0,0,6.4976,6.5064,6.5143,6.5255,6.529,6.5342,6.5393,6.541,6.5481,6.5509,6.5562,6.5629,6.5712,6.5767,6.5847,6.598,6.5997,6.6036,6.6048,6.6057,6.6069,6.614,6.6158,6.5969,6.5968,6.5968,0,0,6.5018,6.5082,6.5135,6.526,6.5316,6.5403,6.5366,6.5461,6.5525,6.5523,6.5639,6.5679,6.5756,6.5882,6.594,6.5919,6.6125,6.6068,6.6075,6.6082,6.6151,6.6168,6.6184,6.5974,6.5973,6.5972,0,0,6.514,6.5198,6.5297,6.5354,6.5439,6.5472,6.5496,6.558,6.5607,6.5725,6.5724,6.58,6.5943,6.5998,6.6044,6.6185,6.6179,6.621,6.6271,6.634,6.6355,6.6368,6.6416,6.6434,6.6222,6.6222,6.6222,0,6.5181,6.5316,6.5348,6.5443,6.5497,6.5501,6.56,6.5652,6.5757,6.5793,6.5768,6.5948,6.6,6.6138,6.6172,6.621,6.6236,6.62,6.6351,6.6364,6.6377,6.6423,6.6442,6.6225,6.6225,6.6224,6.6224,0,6.5361,6.5454,6.5524,6.5628,6.5689,6.5786,6.5829,6.5887,6.5898,6.5934,6.6051,6.6114,6.6207,6.624,6.6252,6.6379,6.6363,6.6344,6.6299,6.6398,6.6442,6.646,6.6229,6.6228,6.6227,6.6227,0,0,6.55,6.562,6.5645,6.5691,6.5785,6.5856,6.5951,6.6044,6.6092,6.6164,6.6243,6.6364,6.6347,6.6399,6.6416,6.6476,6.6581,6.645,6.6452,6.6471,6.6723,6.6736,6.6756,6.6579,6.6582,6.6585,6.6716,0,6.563,6.5802,6.5833,6.5982,6.6066,6.6071,6.6153,6.6218,6.6253,6.6328,6.6366,6.6451,6.6423,6.6454,6.6514,6.6556,6.6632,6.6547,6.6649,6.6653,6.6629,6.678,6.6794,6.6915,6.6734,6.6737,6.6739,0,6.5805,6.5884,6.6042,6.6122,6.6159,6.6233,6.6319,6.6392,6.6464,6.6485,6.6544,6.6553,6.6649,6.66,6.6731,6.6672,6.6716,6.6742,6.6748,6.6757,6.6701,6.6792,6.6954,6.6972,6.6767,6.6764,6.6762,0,6.5888,6.6033,6.6146,6.6186,6.6283,6.6335,6.6377,6.6446,6.6499,6.6574,6.6608,6.6692,6.6738,6.6801,6.6832,6.6794,6.696,6.6914,6.6978,6.6977,6.7012,6.7009,6.7182,6.7042,6.7042,6.7042,6.7041,0,6.6029,6.6125,6.6185,6.6254,6.6361,6.6394,6.6497,6.6538,6.6599,6.6674,6.6683,6.6752,6.679,6.6864,6.6889,6.6992,6.7013,6.7031,6.7036,6.7029,6.7027,6.7057,6.7049,6.7047,6.7046,6.7045,6.7044,0,6.614,6.6184,6.6307,6.6389,6.6412,6.6487,6.6556,6.6621,6.6657,6.6751,6.6775,6.6829,6.6917,6.6955,6.7062,6.7079,6.7197,6.7196,6.7173,6.7174,6.7236,6.7229,6.7433,6.7461,6.7304,6.7306,6.7307,0,6.6226,6.6301,6.6391,6.6443,6.6488,6.6571,6.6626,6.6661,6.6716,6.6804,6.6858,6.6947,6.702,6.7159,6.7206,6.7288,6.7288,6.7354,6.73,6.7291,6.7287,6.7282,6.7288,6.7364,6.7365,6.7366,6.7368,0,6.6375,6.6393,6.6473,6.656,6.6626,6.6696,6.6763,6.6805,6.6849,6.6911,6.7003,6.7059,6.7169,6.7256,6.7341,6.7381,6.7381,6.7384,6.7403,6.7397,6.738,6.7388,6.7198,6.7379,6.7378,6.7377,6.7377,6.7376,6.6475,6.6541,6.6615,6.6703,6.6758,6.6821,6.6887,6.693,6.7008,6.7102,6.7117,6.7213,6.7281,6.7395,6.7439,6.7513,6.7496,6.7524,6.753,6.7536,6.7539,6.7369,6.7528,6.7528,6.7528,6.7528,6.7527,0,6.6623,6.667,6.6751,6.6847,6.6916,6.6912,6.6987,6.7044,6.7129,6.7194,6.7266,6.7369,6.7453,6.7507,6.7591,6.764,6.7642,6.766,6.7656,6.7665,6.7551,6.7525,6.7657,6.7657,6.7657,6.7657,6.7657,6.7657,6.6707,6.6818,6.6844,6.698,6.7027,6.7124,6.7166,6.7223,6.7275,6.7391,6.7462,6.7497,6.7557,6.7645,6.7721,6.7734,6.7764,6.7783,6.7795,6.7687,6.7673,6.766,6.7637,6.779,6.779,6.7904,6.7905,6.7905]}]]